CSUN Campus Station - National Weather Service Data Page - PST Time




                Date      RH     Dew  Seasonal     Current   Max Air   Min Air    Wind    Wind    Wind    Gust     Bar    Rain
                Time       %   Point      Rain    Air Temp     Since     Since   Speed    Gust     Dir     Dir   Press   Total
                               Deg F    Inches       Deg F  Midnight  Midnight     MPH     MPH                      mb  Inches
------------------------------------------------------------------------------------------------------------------------------
    09/19/2014 00:00      77    57.6      0.10        65.2      84.5      65.0       0       1     137     148    1010    0.00
    09/19/2014 00:10      77    57.7      0.10        65.1      65.3      65.0       1       3     149     150    1010    0.00
    09/19/2014 00:20      76    57.8      0.10        65.3      65.5      65.0       1       2     142     155    1010    0.00
    09/19/2014 00:30      76    57.7      0.10        65.5      65.7      65.0       1       2     142     150    1010    0.00
    09/19/2014 00:40      75    57.6      0.10        65.6      65.8      65.0       0       2     144     151    1010    0.00
    09/19/2014 00:50      75    57.5      0.10        65.6      65.8      65.0       1       2     150     143    1010    0.00
    09/19/2014 01:00      76    57.5      0.10        65.4      65.8      65.0       1       2     144     144    1010    0.00
    09/19/2014 01:10      76    57.5      0.10        65.4      65.8      65.0       0       2     152     155    1010    0.00
    09/19/2014 01:20      76    57.4      0.10        65.2      65.8      65.0       0       2     154     152    1010    0.00
    09/19/2014 01:30      76    57.4      0.10        64.9      65.8      64.7       0       0       0     152    1010    0.00
    09/19/2014 01:40      77    57.4      0.10        64.8      65.8      64.6       0       0       0     185    1010    0.00
    09/19/2014 01:50      76    57.5      0.10        65.0      65.8      64.6       0       0       0     234    1010    0.00
    09/19/2014 02:00      76    57.3      0.10        65.1      65.8      64.6       0       1     173     172    1010    0.00
    09/19/2014 02:10      76    57.4      0.10        65.0      65.8      64.6       1       1     161     151    1010    0.00
    09/19/2014 02:20      77    57.5      0.10        65.1      65.8      64.6       0       1     156     157    1010    0.00
    09/19/2014 02:30      77    57.8      0.10        65.2      65.8      64.6       0       1      52      64    1010    0.00
    09/19/2014 02:40      77    58.1      0.10        65.5      65.8      64.6       0       1      60      58    1010    0.00
    09/19/2014 02:50      77    58.5      0.10        65.8      66.2      64.6       1       2      98      70    1010    0.00
    09/19/2014 03:00      77    58.5      0.10        66.1      66.3      64.6       2       3     148     136    1010    0.00
    09/19/2014 03:10      77    58.7      0.10        66.1      66.3      64.6       2       3     143     132    1010    0.00
    09/19/2014 03:20      77    58.9      0.10        66.2      66.4      64.6       2       4     123      78    1010    0.00
    09/19/2014 03:30      77    59.0      0.10        66.4      66.5      64.6       1       4     125     157    1010    0.00
    09/19/2014 03:40      77    59.1      0.10        66.4      66.6      64.6       1       3     106     141    1011    0.00
    09/19/2014 03:50      77    59.1      0.10        66.4      66.7      64.6       2       4     126     129    1010    0.00
    09/19/2014 04:00      78    59.1      0.10        66.3      66.7      64.6       2       5     120      91    1010    0.00
    09/19/2014 04:10      78    59.1      0.10        66.2      66.7      64.6       2       5     112     150    1010    0.00
    09/19/2014 04:20      78    59.0      0.10        66.2      66.7      64.6       1       5     110     135    1010    0.00
    09/19/2014 04:30      77    58.9      0.10        66.2      66.7      64.6       1       4     111     126    1011    0.00
    09/19/2014 04:40      78    58.8      0.10        66.0      66.7      64.6       1       5     133     128    1011    0.00
    09/19/2014 04:50      79    58.9      0.10        65.7      66.7      64.6       3       6     141     150    1011    0.00
    09/19/2014 05:00      79    58.9      0.10        65.6      66.7      64.6       2       5     143     124    1011    0.00
    09/19/2014 05:10      79    59.0      0.10        65.6      66.7      64.6       2       4     147     181    1011    0.00
    09/19/2014 05:20      79    58.9      0.10        65.5      66.7      64.6       1       2     143     164    1011    0.00
    09/19/2014 05:30      78    58.9      0.10        65.6      66.7      64.6       1       3      65      62    1011    0.00
    09/19/2014 05:40      78    58.8      0.10        65.8      66.7      64.6       1       2      93      73    1011    0.00
    09/19/2014 05:50      77    58.8      0.10        66.0      66.7      64.6       1       2      78     101    1011    0.00
    09/19/2014 06:00      76    58.7      0.10        66.2      66.7      64.6       1       2      92     101    1011    0.00
    09/19/2014 06:10      77    58.8      0.10        66.3      66.7      64.6       1       4     139     170    1011    0.00
    09/19/2014 06:20      77    58.9      0.10        66.3      66.7      64.6       1       2     166     165    1011    0.00
    09/19/2014 06:30      77    58.9      0.10        66.3      66.7      64.6       1       3     146     138    1011    0.00
    09/19/2014 06:40      77    59.0      0.10        66.5      66.7      64.6       1       3     164     162    1012    0.00
    09/19/2014 06:50      77    59.0      0.10        66.5      66.7      64.6       2       3     168     161    1012    0.00
    09/19/2014 07:00      76    59.0      0.10        66.7      67.1      64.6       2       4     144     154    1012    0.00
    09/19/2014 07:10      74    58.9      0.10        67.2      67.4      64.6       1       2     116     124    1012    0.00
    09/19/2014 07:20      73    59.1      0.10        67.6      68.1      64.6       1       3     138     148    1012    0.00
    09/19/2014 07:30      73    58.9      0.10        67.9      68.1      64.6       2       4     135     135    1012    0.00
    09/19/2014 07:40      73    59.1      0.10        68.1      68.3      64.6       0       2     135     135    1012    0.00
    09/19/2014 07:50      72    58.9      0.10        68.2      68.4      64.6       1       2     127      91    1012    0.00
    09/19/2014 08:00      70    58.7      0.10        68.5      68.8      64.6       1       3      64      77    1012    0.00
    09/19/2014 08:10      69    58.4      0.10        68.9      69.4      64.6       1       4     121     145    1012    0.00
    09/19/2014 08:20      66    57.9      0.10        69.4      69.6      64.6       3       6      88      84    1012    0.00
    09/19/2014 08:30      67    58.0      0.10        69.5      69.7      64.6       3       7      74      82    1012    0.00
    09/19/2014 08:40      66    58.0      0.10        69.5      69.8      64.6       3       7      74      77    1012    0.00
    09/19/2014 08:50      66    57.9      0.10        69.7      70.0      64.6       3       6      82     101    1012    0.00
    09/19/2014 09:00      62    57.3      0.10        70.0      70.3      64.6       3       7      78      90    1012    0.00
    09/19/2014 09:10      63    57.1      0.10        70.6      71.1      64.6       2       5     100     144    1012    0.00
    09/19/2014 09:20      62    57.3      0.10        70.9      71.4      64.6       1       5      85      99    1012    0.00
    09/19/2014 09:30      61    57.6      0.10        71.7      72.2      64.6       2       5     124     140    1012    0.00
    09/19/2014 09:40      61    57.6      0.10        71.8      72.3      64.6       3       7     106     126    1012    0.00
    09/19/2014 09:50      61    57.3      0.10        71.9      72.3      64.6       2       6      71      76    1012    0.00
    09/19/2014 10:00      59    57.6      0.10        72.0      72.3      64.6       3       7      94     106    1012    0.00
    09/19/2014 10:10      59    57.6      0.10        72.6      73.2      64.6       3       6     145     163    1012    0.00
    09/19/2014 10:20      55    57.4      0.10        74.4      75.2      64.6       2       5     115     125    1012    0.00
    09/19/2014 10:30      55    57.0      0.10        74.7      75.8      64.6       2       6     105      63    1011    0.00
    09/19/2014 10:40      55    57.5      0.10        74.5      75.8      64.6       3       8     146     161    1011    0.00
    09/19/2014 10:50      56    57.5      0.10        74.5      75.8      64.6       4       8     167     162    1011    0.00
    09/19/2014 11:00      52    58.3      0.10        75.7      77.3      64.6       6      10     151     158    1011    0.00
    09/19/2014 11:10      53    57.5      0.10        76.8      77.7      64.6       5       8     165     167    1011    0.00
    09/19/2014 11:20      49    57.6      0.10        76.4      77.7      64.6       5      12     165     146    1011    0.00
    09/19/2014 11:30      51    57.0      0.10        76.5      77.7      64.6       2       7     159     133    1011    0.00
    09/19/2014 11:40      48    57.3      0.10        78.2      78.7      64.6       3       9      97     106    1011    0.00
    09/19/2014 11:50      48    57.1      0.10        78.3      79.0      64.6       4       9     157     153    1011    0.00
    09/19/2014 12:00      46    56.5      0.10        78.4      79.0      64.6       4       9     117     100    1010    0.00
    09/19/2014 12:10      45    56.4      0.10        78.7      79.3      64.6       3       9     114     153    1010    0.00
    09/19/2014 12:20      45    56.4      0.10        79.0      79.5      64.6       5      11      96     147    1010    0.00
    09/19/2014 12:30      43    56.0      0.10        79.5      80.1      64.6       4       9      82      64    1010    0.00
    09/19/2014 12:40      41    55.4      0.10        80.4      80.9      64.6       3       8      93     129    1010    0.00
    09/19/2014 12:50      41    54.7      0.10        80.6      81.0      64.6       2       7     101     160    1010    0.00
    09/19/2014 13:00      43    55.4      0.10        80.6      81.1      64.6       4       9     128     129    1010    0.00
    09/19/2014 13:10      43    55.9      0.10        80.4      81.1      64.6       3       7      72      95    1010    0.00
    09/19/2014 13:20      43    56.1      0.10        80.4      81.3      64.6       2       7     129     165    1010    0.00
    09/19/2014 13:30      41    56.0      0.10        81.7      82.1      64.6       4       8     125     109    1009    0.00
    09/19/2014 13:40      43    56.0      0.10        81.8      82.2      64.6       4       8     154     198    1009    0.00
    09/19/2014 13:50      40    55.4      0.10        81.3      82.2      64.6       3       7     195     213    1009    0.00
    09/19/2014 14:00      40    55.2      0.10        82.0      82.6      64.6       4       9     120     142    1009    0.00
    09/19/2014 14:10      42    55.5      0.10        81.5      82.6      64.6       4       9     187     158    1009    0.00
    09/19/2014 14:20      41    56.1      0.10        81.1      82.6      64.6       4      10     137     137    1009    0.00
    09/19/2014 14:30      40    55.6      0.10        81.5      82.6      64.6       3       9     152     154    1009    0.00
    09/19/2014 14:40      40    55.5      0.10        81.6      82.6      64.6       5      10     155     166    1009    0.00
    09/19/2014 14:50      39    55.3      0.10        82.0      82.6      64.6       4       8     154     163    1009    0.00
    09/19/2014 15:00      40    55.4      0.10        82.1      82.6      64.6       5       9     142     189    1009    0.00
    09/19/2014 15:10      39    55.5      0.10        82.6      83.1      64.6       3       8     122      91    1009    0.00
    09/19/2014 15:20      40    55.4      0.10        82.2      83.1      64.6       5      14     119     143    1009    0.00
    09/19/2014 15:30      40    55.6      0.10        81.8      83.1      64.6       5      11     138     165    1009    0.00
    09/19/2014 15:40      41    55.3      0.10        81.5      83.1      64.6       4       9     137     146    1009    0.00
    09/19/2014 15:50      42    55.5      0.10        81.2      83.1      64.6       5      10     143     157    1009    0.00
    09/19/2014 16:00      41    55.3      0.10        81.1      83.1      64.6       4       9     137     178    1009    0.00
    09/19/2014 16:10      41    54.7      0.10        80.9      83.1      64.6       4       9     130     132    1009    0.00
    09/19/2014 16:20      40    54.4      0.10        80.4      83.1      64.6       4      10     160     144    1009    0.00
    09/19/2014 16:30      41    54.1      0.10        79.8      83.1      64.6       4       8     137     172    1009    0.00
    09/19/2014 16:40      46    55.4      0.10        79.5      83.1      64.6       4       9     189     182    1009    0.00
    09/19/2014 16:50      47    56.6      0.10        78.8      83.1      64.6       4       8     241     254    1009    0.00
    09/19/2014 17:00      47    56.6      0.10        78.6      83.1      64.6       3       7     278     247    1009    0.00
    09/19/2014 17:10      47    56.6      0.10        78.3      83.1      64.6       3       7     274     243    1009    0.00
    09/19/2014 17:20      47    56.5      0.10        78.1      83.1      64.6       3       6     268     254    1009    0.00
    09/19/2014 17:30      48    56.6      0.10        77.7      83.1      64.6       3       6     275     257    1009    0.00
    09/19/2014 17:40      51    56.8      0.10        76.9      83.1      64.6       2       5     288     246    1009    0.00
    09/19/2014 17:50      52    56.8      0.10        76.1      83.1      64.6       3       6     262     247    1009    0.00
    09/19/2014 18:00      53    57.0      0.10        75.5      83.1      64.6       3       6     274     261    1009    0.00
    09/19/2014 18:10      55    57.0      0.10        74.8      83.1      64.6       2       6     277     274    1009    0.00
    09/19/2014 18:20      56    57.1      0.10        74.1      83.1      64.6       3       7     282     307    1009    0.00
    09/19/2014 18:30      58    57.1      0.10        73.3      83.1      64.6       3       7     278     256    1009    0.00
    09/19/2014 18:40      58    57.2      0.10        72.8      83.1      64.6       2       6     277     250    1009    0.00
    09/19/2014 18:50      59    57.1      0.10        72.5      83.1      64.6       2       5     271     247    1010    0.00
    09/19/2014 19:00      59    57.1      0.10        72.2      83.1      64.6       1       4     273     254    1010    0.00
    09/19/2014 19:10      59    57.1      0.10        71.9      83.1      64.6       2       4     288     299    1010    0.00
    09/19/2014 19:20      60    57.0      0.10        71.6      83.1      64.6       1       4     249     248    1010    0.00
    09/19/2014 19:30      61    57.0      0.10        71.1      83.1      64.6       1       4     243     256    1010    0.00
    09/19/2014 19:40      62    57.0      0.10        70.9      83.1      64.6       2       4     247     258    1010    0.00
    09/19/2014 19:50      62    56.9      0.10        70.6      83.1      64.6       1       4     243     247    1010    0.00
    09/19/2014 20:00      63    56.9      0.10        70.2      83.1      64.6       1       6     243     264    1010    0.00
    09/19/2014 20:10      62    56.9      0.10        70.4      83.1      64.6       3       6     255     247    1010    0.00
    09/19/2014 20:20      63    56.9      0.10        70.5      83.1      64.6       1       5     275     267    1010    0.00
    09/19/2014 20:30      63    56.9      0.10        70.1      83.1      64.6       2       5     254     254    1010    0.00
    09/19/2014 20:40      63    56.9      0.10        69.9      83.1      64.6       1       5     267     247    1011    0.00
    09/19/2014 20:50      64    57.0      0.10        69.8      83.1      64.6       1       3     273     273    1011    0.00
    09/19/2014 21:00      65    56.9      0.10        69.5      83.1      64.6       0       4     277     252    1011    0.00
    09/19/2014 21:10      66    57.1      0.10        69.0      83.1      64.6       0       2     159     157    1011    0.00
    09/19/2014 21:20      67    56.8      0.10        68.5      83.1      64.6       2       3     191     190    1011    0.00
    09/19/2014 21:30      68    56.8      0.10        68.1      83.1      64.6       1       3     194     194    1011    0.00
    09/19/2014 21:40      70    57.3      0.10        68.0      83.1      64.6       0       1     255     256    1011    0.00
    09/19/2014 21:50      69    57.5      0.10        67.8      83.1      64.6       0       0       0     301    1011    0.00
    09/19/2014 22:00      69    56.9      0.10        67.5      83.1      64.6       0       0       0     262    1011    0.00
    09/19/2014 22:10      69    57.0      0.10        67.3      83.1      64.6       0       0       0     253    1011    0.00
    09/19/2014 22:20      70    57.0      0.10        67.1      83.1      64.6       0       1     158     155    1011    0.00
    09/19/2014 22:30      70    57.1      0.10        67.0      83.1      64.6       1       1     160     166    1011    0.00
    09/19/2014 22:40      71    57.0      0.10        66.7      83.1      64.6       1       3     174     186    1011    0.00
    09/19/2014 22:50      71    57.0      0.10        66.6      83.1      64.6       2       2     182     186    1011    0.00
    09/19/2014 23:00      72    57.0      0.10        66.3      83.1      64.6       1       2     194     184    1011    0.00
    09/19/2014 23:10      73    56.9      0.10        66.0      83.1      64.6       1       3     211     208    1011    0.00
    09/19/2014 23:20      72    57.0      0.10        66.0      83.1      64.6       1       2     211     215    1011    0.00
    09/19/2014 23:30      73    57.0      0.10        65.8      83.1      64.6       0       0       0     205    1011    0.00
    09/19/2014 23:40      73    56.9      0.10        65.7      83.1      64.6       0       0       0     206    1011    0.00
    09/19/2014 23:50      74    56.9      0.10        65.5      83.1      64.6       0       0       0     206    1011    0.00
    09/20/2014 00:00      74    56.9      0.10        65.4      83.1      64.6       0       0       0     206    1011    0.00
    09/20/2014 00:10      74    56.8      0.10        65.3      65.6      65.1       0       1      76      70    1011    0.00
    09/20/2014 00:20      75    56.9      0.10        65.2      65.6      65.0       0       1      80      76    1011    0.00
    09/20/2014 00:30      75    57.0      0.10        65.2      65.6      64.8       1       2     157     167    1011    0.00
    09/20/2014 00:40      76    56.9      0.10        64.9      65.6      64.7       1       2     139     126    1011    0.00
    09/20/2014 00:50      76    57.1      0.10        64.8      65.6      64.7       0       1     105      77    1011    0.00
    09/20/2014 01:00      76    57.0      0.10        64.8      65.6      64.6       0       1      63      63    1011    0.00
    09/20/2014 01:10      75    57.2      0.10        65.0      65.6      64.6       1       2      79      78    1011    0.00
    09/20/2014 01:20      75    57.3      0.10        65.3      65.6      64.6       1       2      82      75    1011    0.00
    09/20/2014 01:30      77    57.1      0.10        64.9      65.6      64.4       0       1     163     202    1011    0.00
    09/20/2014 01:40      80    57.5      0.10        64.4      65.6      64.2       1       2      59      54    1011    0.00
    09/20/2014 01:50      78    58.4      0.10        65.2      65.6      64.2       1       3      42      86    1011    0.00
    09/20/2014 02:00      78    58.4      0.10        65.4      65.6      64.2       1       3      28      37    1011    0.00
    09/20/2014 02:10      79    58.5      0.10        65.2      65.6      64.2       1       2      32      27    1011    0.00
    09/20/2014 02:20      78    58.5      0.10        65.3      65.6      64.2       1       3      52      29    1011    0.00
    09/20/2014 02:30      78    58.4      0.10        65.2      65.6      64.2       1       3      67      63    1011    0.00
    09/20/2014 02:40      79    58.3      0.10        65.0      65.6      64.2       1       2      60      91    1011    0.00
    09/20/2014 02:50      79    58.4      0.10        64.9      65.6      64.2       2       4      42      32    1011    0.00
    09/20/2014 03:00      79    58.3      0.10        64.8      65.6      64.2       2       4      49      36    1011    0.00
    09/20/2014 03:10      80    58.2      0.10        64.8      65.6      64.2       2       5      49      35    1011    0.00
    09/20/2014 03:20      79    58.2      0.10        64.7      65.6      64.2       2       4      60      62    1011    0.00
    09/20/2014 03:30      80    58.0      0.10        64.5      65.6      64.2       1       3      58      25    1011    0.00
    09/20/2014 03:40      80    58.1      0.10        64.4      65.6      64.2       1       3      51      42    1011    0.00
    09/20/2014 03:50      80    58.0      0.10        64.3      65.6      64.1       0       2      64      93    1011    0.00
    09/20/2014 04:00      81    57.7      0.10        63.9      65.6      63.5       0       0       0      78    1011    0.00
    09/20/2014 04:10      82    57.9      0.10        63.6      65.6      63.4       0       2      46      60    1011    0.00
    09/20/2014 04:20      81    58.3      0.10        63.9      65.6      63.4       2       3      36      62    1011    0.00
    09/20/2014 04:30      80    58.0      0.10        64.0      65.6      63.4       1       2      31       7    1012    0.00
    09/20/2014 04:40      80    57.7      0.10        63.9      65.6      63.4       1       3      40      52    1012    0.00
    09/20/2014 04:50      80    57.7      0.10        64.0      65.6      63.4       2       3      43      31    1012    0.00
    09/20/2014 05:00      80    57.7      0.10        64.0      65.6      63.4       1       2      68      45    1012    0.00
    09/20/2014 05:10      81    57.7      0.10        63.8      65.6      63.4       0       1      96      99    1012    0.00
    09/20/2014 05:20      82    57.7      0.10        63.5      65.6      63.3       0       1     153     154    1012    0.00
    09/20/2014 05:30      83    58.2      0.10        63.5      65.6      63.3       0       1     170     162    1012    0.00
    09/20/2014 05:40      83    58.2      0.10        63.5      65.6      63.3       0       0     155     155    1012    0.00
    09/20/2014 05:50      83    58.0      0.10        63.3      65.6      63.1       0       1      92     105    1012    0.00
    09/20/2014 06:00      82    58.0      0.10        63.4      65.6      63.1       1       2      44      39    1012    0.00
    09/20/2014 06:10      79    57.8      0.10        64.0      65.6      63.1       1       2      39      46    1012    0.00
    09/20/2014 06:20      78    57.8      0.10        64.6      65.6      63.1       1       2      74      53    1012    0.00
    09/20/2014 06:30      77    58.0      0.10        65.2      65.6      63.1       0       1     127     152    1012    0.00
    09/20/2014 06:40      77    58.1      0.10        65.5      65.8      63.1       0       1     182     162    1012    0.00
    09/20/2014 06:50      77    58.4      0.10        65.7      66.0      63.1       0       2     181     170    1012    0.00
    09/20/2014 07:00      77    58.6      0.10        66.1      66.4      63.1       0       2     172     163    1013    0.00
    09/20/2014 07:10      77    58.8      0.10        66.3      66.5      63.1       1       2     122     170    1013    0.00
    09/20/2014 07:20      78    59.0      0.10        66.2      66.5      63.1       2       4     162     170    1013    0.00
    09/20/2014 07:30      78    59.1      0.10        66.1      66.5      63.1       3       6     154     167    1013    0.00
    09/20/2014 07:40      79    59.0      0.10        65.9      66.5      63.1       2       4     143     125    1013    0.00
    09/20/2014 07:50      79    59.1      0.10        65.8      66.5      63.1       1       3     125     137    1013    0.00
    09/20/2014 08:00      78    59.1      0.10        66.1      66.5      63.1       2       4     143     151    1013    0.00
    09/20/2014 08:10      78    59.1      0.10        66.1      66.5      63.1       2       5     152     154    1013    0.00
    09/20/2014 08:20      77    59.0      0.10        66.3      66.7      63.1       2       4     143     135    1013    0.00
    09/20/2014 08:30      76    58.7      0.10        66.5      66.7      63.1       2       5     149     152    1013    0.00
    09/20/2014 08:40      76    58.6      0.10        66.5      66.8      63.1       1       4     127     140    1013    0.00
    09/20/2014 08:50      77    59.0      0.10        66.6      66.9      63.1       3       6     180     191    1013    0.00
    09/20/2014 09:00      77    59.0      0.10        66.4      66.9      63.1       3       5     193     172    1013    0.00
    09/20/2014 09:10      78    59.0      0.10        66.3      66.9      63.1       4       5     183     176    1014    0.00
    09/20/2014 09:20      76    59.1      0.10        66.4      66.9      63.1       2       3     144     135    1014    0.00
    09/20/2014 09:30      76    59.0      0.10        66.6      66.9      63.1       2       5     138     141    1014    0.00
    09/20/2014 09:40      75    59.1      0.10        67.0      67.3      63.1       1       3     130     144    1014    0.00
    09/20/2014 09:50      73    58.9      0.10        67.4      67.6      63.1       1       4     138     139    1014    0.00
    09/20/2014 10:00      74    58.8      0.10        67.4      67.6      63.1       1       6     109     105    1014    0.00
    09/20/2014 10:10      74    58.9      0.10        67.4      67.7      63.1       2       3      98      78    1014    0.00
    09/20/2014 10:20      73    59.0      0.10        67.8      68.0      63.1       1       3      97     129    1014    0.00
    09/20/2014 10:30      73    58.9      0.10        67.9      68.1      63.1       1       3     206     266    1014    0.00
    09/20/2014 10:40      70    58.9      0.10        68.4      68.9      63.1       0       2     251     271    1013    0.00
    09/20/2014 10:50      68    58.7      0.10        69.1      69.8      63.1       0       1      62      76    1013    0.00
    09/20/2014 11:00      67    58.7      0.10        70.0      70.4      63.1       1       3     145     156    1013    0.00
    09/20/2014 11:10      66    58.6      0.10        69.9      70.4      63.1       2       5     181     189    1013    0.00
    09/20/2014 11:20      64    58.6      0.10        70.8      71.5      63.1       1       4     206     217    1013    0.00
    09/20/2014 11:30      62    58.6      0.10        71.7      72.2      63.1       1       3     203     168    1013    0.00
    09/20/2014 11:40      60    58.1      0.10        72.1      72.6      63.1       1       3      88      84    1013    0.00
    09/20/2014 11:50      61    57.9      0.10        72.3      72.7      63.1       2       5     128     152    1013    0.00
    09/20/2014 12:00      62    58.0      0.10        71.8      72.7      63.1       2       5     155     168    1013    0.00
    09/20/2014 12:10      61    58.3      0.10        72.4      72.9      63.1       3       6     136     158    1013    0.00
    09/20/2014 12:20      61    58.3      0.10        72.6      73.0      63.1       2       5     111     102    1012    0.00
    09/20/2014 12:30      61    58.3      0.10        72.8      73.3      63.1       3       5     219     185    1012    0.00
    09/20/2014 12:40      58    58.1      0.10        73.1      73.6      63.1       3       5     195     198    1012    0.00
    09/20/2014 12:50      56    57.9      0.10        73.8      74.7      63.1       2       5     147      87    1012    0.00
    09/20/2014 13:00      55    57.8      0.10        74.5      74.8      63.1       3       7      34      76    1012    0.00
    09/20/2014 13:10      52    58.3      0.10        76.1      77.0      63.1       2       5     140     167    1012    0.00
    09/20/2014 13:20      53    57.8      0.10        76.9      77.4      63.1       4       6      91      87    1012    0.00
    09/20/2014 13:30      51    57.7      0.10        76.7      77.4      63.1       3       9      97     148    1011    0.00
    09/20/2014 13:40      50    57.6      0.10        77.5      78.1      63.1       4       8     159     154    1011    0.00
    09/20/2014 13:50      50    57.4      0.10        77.7      78.3      63.1       3       7     163     109    1011    0.00
    09/20/2014 14:00      47    57.2      0.10        78.3      79.1      63.1       2       5     109     104    1011    0.00
    09/20/2014 14:10      46    57.0      0.10        79.3      80.0      63.1       2       5     169     146    1011    0.00
    09/20/2014 14:20      46    57.2      0.10        79.5      80.1      63.1       3       7     139     120    1011    0.00
    09/20/2014 14:30      46    57.0      0.10        79.5      80.1      63.1       2       5     149      82    1011    0.00
    09/20/2014 14:40      45    57.2      0.10        79.8      80.1      63.1       3       7     108     171    1011    0.00
    09/20/2014 14:50      47    57.0      0.10        79.4      80.1      63.1       2       4     332      77    1011    0.00
    09/20/2014 15:00      44    57.3      0.10        80.6      81.1      63.1       2       5      87      95    1011    0.00
    09/20/2014 15:10      43    56.9      0.10        81.1      81.5      63.1       3       7     129     162    1010    0.00
    09/20/2014 15:20      42    56.3      0.10        81.0      81.8      63.1       4       8     162     197    1010    0.00
    09/20/2014 15:30      44    56.6      0.10        81.4      82.0      63.1       4      10     157     172    1010    0.00
    09/20/2014 15:40      45    57.1      0.10        81.0      82.0      63.1       4       9     138     152    1010    0.00
    09/20/2014 15:50      46    57.0      0.10        80.1      82.0      63.1       5      10     142     130    1010    0.00
    09/20/2014 16:00      45    56.8      0.10        79.9      82.0      63.1       3       8     116      72    1010    0.00
    09/20/2014 16:10      47    56.7      0.10        79.3      82.0      63.1       4      10     129     147    1010    0.00
    09/20/2014 16:20      47    56.8      0.10        78.9      82.0      63.1       4       8     118     150    1010    0.00
    09/20/2014 16:30      48    57.0      0.10        78.4      82.0      63.1       4       9     134     123    1010    0.00
    09/20/2014 16:40      49    57.0      0.10        78.0      82.0      63.1       3       7     118     127    1010    0.00
    09/20/2014 16:50      50    56.9      0.10        77.2      82.0      63.1       4       9     127     142    1010    0.00
    09/20/2014 17:00      51    56.9      0.10        76.3      82.0      63.1       2       7     120     154    1010    0.00
    09/20/2014 17:10      53    56.8      0.10        75.5      82.0      63.1       3       8     126     110    1011    0.00
    09/20/2014 17:20      53    56.7      0.10        75.3      82.0      63.1       4       7     134     131    1011    0.00
    09/20/2014 17:30      54    56.5      0.10        74.6      82.0      63.1       3       7     122      84    1011    0.00
    09/20/2014 17:40      55    56.5      0.10        74.1      82.0      63.1       2       6     112     138    1011    0.00
    09/20/2014 17:50      56    56.7      0.10        73.5      82.0      63.1       2       7     108     157    1011    0.00
    09/20/2014 18:00      58    56.8      0.10        72.9      82.0      63.1       2       5     105      71    1011    0.00
    09/20/2014 18:10      59    56.9      0.10        72.2      82.0      63.1       1       5     103      76    1011    0.00
    09/20/2014 18:20      60    57.0      0.10        71.7      82.0      63.1       1       4      94      77    1011    0.00
    09/20/2014 18:30      61    57.0      0.10        71.2      82.0      63.1       2       5      92      93    1011    0.00
    09/20/2014 18:40      62    57.0      0.10        70.9      82.0      63.1       3       6      85      90    1011    0.00
    09/20/2014 18:50      63    57.1      0.10        70.6      82.0      63.1       3       6      75      87    1011    0.00
    09/20/2014 19:00      63    57.1      0.10        70.3      82.0      63.1       3       5      76      81    1011    0.00
    09/20/2014 19:10      64    57.2      0.10        70.0      82.0      63.1       1       5      91      68    1011    0.00
    09/20/2014 19:20      65    57.2      0.10        69.7      82.0      63.1       1       4      95     109    1012    0.00
    09/20/2014 19:30      66    57.3      0.10        69.4      82.0      63.1       1       3      92      90    1012    0.00
    09/20/2014 19:40      66    57.3      0.10        69.1      82.0      63.1       1       3      83      64    1012    0.00
    09/20/2014 19:50      67    57.3      0.10        68.9      82.0      63.1       1       3      90      62    1012    0.00
    09/20/2014 20:00      67    57.2      0.10        68.6      82.0      63.1       0       2     101     108    1012    0.00
    09/20/2014 20:10      69    57.1      0.10        68.0      82.0      63.1       1       3     152     146    1012    0.00
    09/20/2014 20:20      70    57.2      0.10        67.6      82.0      63.1       1       3     139     158    1012    0.00
    09/20/2014 20:30      70    57.3      0.10        67.6      82.0      63.1       1       3      96      77    1012    0.00
    09/20/2014 20:40      71    57.2      0.10        67.4      82.0      63.1       1       2     108      85    1012    0.00
    09/20/2014 20:50      70    57.4      0.10        67.4      82.0      63.1       1       3      78      57    1012    0.00
    09/20/2014 21:00      71    57.4      0.10        67.3      82.0      63.1       1       3      85      76    1012    0.00
    09/20/2014 21:10      71    57.3      0.10        67.0      82.0      63.1       0       2      84      57    1012    0.00
    09/20/2014 21:20      72    57.2      0.10        66.7      82.0      63.1       1       2     121     109    1012    0.00
    09/20/2014 21:30      72    57.2      0.10        66.5      82.0      63.1       1       2     139     138    1012    0.00
    09/20/2014 21:40      73    57.0      0.10        66.1      82.0      63.1       0       1     158     158    1013    0.00
    09/20/2014 21:50      74    57.0      0.10        65.6      82.0      63.1       1       2     147     139    1013    0.00
    09/20/2014 22:00      74    56.8      0.10        65.2      82.0      63.1       0       1     162     132    1013    0.00
    09/20/2014 22:10      75    56.6      0.10        64.7      82.0      63.1       0       1     172     173    1013    0.00
    09/20/2014 22:20      77    56.7      0.10        64.3      82.0      63.1       0       0       0     168    1013    0.00
    09/20/2014 22:30      77    56.8      0.10        64.1      82.0      63.1       0       1     170     160    1013    0.00
    09/20/2014 22:40      78    56.8      0.10        63.8      82.0      63.1       0       2     195     212    1013    0.00
    09/20/2014 22:50      79    56.7      0.10        63.6      82.0      63.1       0       1     208     209    1013    0.00
    09/20/2014 23:00      80    57.3      0.10        63.5      82.0      63.1       1       2     193     199    1013    0.00
    09/20/2014 23:10      80    57.1      0.10        63.3      82.0      63.1       0       2     204     223    1013    0.00
    09/20/2014 23:20      80    57.0      0.10        63.2      82.0      62.9       0       0       0     170    1013    0.00
    09/20/2014 23:30      81    56.9      0.10        62.9      82.0      62.6       0       0       0     205    1013    0.00
    09/20/2014 23:40      81    57.0      0.10        62.9      82.0      62.6       0       0       0     204    1013    0.00
    09/20/2014 23:50      82    57.0      0.10        62.8      82.0      62.5       0       0       0     204    1013    0.00
    09/21/2014 00:00      82    56.8      0.10        62.5      82.0      62.3       0       0       0     204    1013    0.00
    09/21/2014 00:10      82    56.4      0.10        62.0      62.4      61.7       0       1     197     197    1013    0.00
    09/21/2014 00:20      83    56.3      0.10        61.7      62.4      61.4       0       0       0     197    1013    0.00
    09/21/2014 00:30      84    57.0      0.10        61.9      62.4      61.4       0       2     116     130    1013    0.00
    09/21/2014 00:40      83    56.8      0.10        61.9      62.4      61.4       0       0       0     141    1013    0.00
    09/21/2014 00:50      84    56.6      0.10        61.7      62.4      61.4       0       1     141     140    1013    0.00
    09/21/2014 01:00      85    56.7      0.10        61.5      62.4      61.2       0       0       0     133    1013    0.00
    09/21/2014 01:10      84    56.8      0.10        61.7      62.4      61.2       0       0      68      65    1013    0.00
    09/21/2014 01:20      84    56.5      0.10        61.5      62.4      61.2       0       1      86      84    1013    0.00
    09/21/2014 01:30      84    56.4      0.10        61.2      62.4      61.0       0       0       0      95    1013    0.00
    09/21/2014 01:40      85    56.4      0.10        61.1      62.4      60.9       0       0       0      87    1013    0.00
    09/21/2014 01:50      85    56.4      0.10        60.9      62.4      60.7       0       0       0      37    1013    0.00
    09/21/2014 02:00      86    56.7      0.10        61.0      62.4      60.7       1       3      39      42    1013    0.00
    09/21/2014 02:10      84    56.9      0.10        61.5      62.4      60.7       1       2      47      33    1013    0.00
    09/21/2014 02:20      83    56.2      0.10        61.3      62.4      60.7       0       1      26      62    1013    0.00
    09/21/2014 02:30      85    55.9      0.10        60.7      62.4      60.5       0       0       0     118    1013    0.00
    09/21/2014 02:40      85    56.1      0.10        60.8      62.4      60.4       1       3      37     350    1013    0.00
    09/21/2014 02:50      82    56.4      0.10        61.3      62.4      60.4       2       4      43      60    1013    0.00
    09/21/2014 03:00      82    56.1      0.10        61.7      62.4      60.4       3       4      44      60    1013    0.00
    09/21/2014 03:10      81    56.0      0.10        61.8      62.4      60.4       1       3      60      30    1013    0.00
    09/21/2014 03:20      81    56.0      0.10        61.7      62.4      60.4       1       3      42      45    1013    0.00
    09/21/2014 03:30      82    55.8      0.10        61.6      62.4      60.4       1       2      15      20    1013    0.00
    09/21/2014 03:40      82    55.8      0.10        61.4      62.4      60.4       1       3     353     341    1013    0.00
    09/21/2014 03:50      82    55.9      0.10        61.4      62.4      60.4       1       2      10       8    1013    0.00
    09/21/2014 04:00      82    56.1      0.10        61.5      62.4      60.4       1       2      10      26    1013    0.00
    09/21/2014 04:10      83    56.0      0.10        61.4      62.4      60.4       0       2       4     352    1013    0.00
    09/21/2014 04:20      83    56.1      0.10        61.3      62.4      60.4       0       1       6      12    1013    0.00
    09/21/2014 04:30      83    56.3      0.10        61.5      62.4      60.4       0       2       6       0    1013    0.00
    09/21/2014 04:40      83    56.5      0.10        61.6      62.4      60.4       0       1      27      51    1013    0.00
    09/21/2014 04:50      82    57.0      0.10        62.3      62.8      60.4       1       3      42      46    1013    0.00
    09/21/2014 05:00      80    56.8      0.10        62.8      63.0      60.4       1       2      44      59    1013    0.00
    09/21/2014 05:10      80    56.8      0.10        63.0      63.3      60.4       0       2      36      25    1013    0.00
    09/21/2014 05:20      79    56.8      0.10        63.2      63.4      60.4       1       2      48      37    1013    0.00
    09/21/2014 05:30      79    56.8      0.10        63.4      63.5      60.4       1       2      71      94    1014    0.00
    09/21/2014 05:40      79    56.8      0.10        63.4      63.5      60.4       0       2      57      98    1014    0.00
    09/21/2014 05:50      79    57.0      0.10        63.6      63.9      60.4       1       2     351     341    1014    0.00
    09/21/2014 06:00      79    57.0      0.10        63.8      64.0      60.4       1       3      46      29    1014    0.00
    09/21/2014 06:10      79    57.1      0.10        63.9      64.0      60.4       1       3      80     135    1014    0.00
    09/21/2014 06:20      78    57.1      0.10        63.9      64.1      60.4       1       3      28     330    1014    0.00
    09/21/2014 06:30      78    57.1      0.10        64.1      64.3      60.4       1       2      17      22    1014    0.00
    09/21/2014 06:40      78    57.2      0.10        64.3      64.5      60.4       0       2      55      70    1014    0.00
    09/21/2014 06:50      78    57.3      0.10        64.4      64.6      60.4       1       2      22      17    1014    0.00
    09/21/2014 07:00      77    57.4      0.10        64.6      64.8      60.4       1       2      12       7    1014    0.00
    09/21/2014 07:10      76    57.4      0.10        64.9      65.2      60.4       1       3     338     336    1014    0.00
    09/21/2014 07:20      76    57.4      0.10        65.3      65.6      60.4       1       3       1     344    1014    0.00
    09/21/2014 07:30      74    57.4      0.10        65.6      66.0      60.4       1       3     357     344    1014    0.00
    09/21/2014 07:40      72    57.2      0.10        65.9      66.2      60.4       1       3     325     330    1015    0.00
    09/21/2014 07:50      71    57.0      0.10        66.3      66.8      60.4       0       2       7      28    1015    0.00
    09/21/2014 08:00      70    56.8      0.10        66.8      67.1      60.4       0       1     230     230    1015    0.00
    09/21/2014 08:10      68    56.7      0.10        67.0      67.4      60.4       0       2     123      55    1015    0.00
    09/21/2014 08:20      68    56.0      0.10        67.0      67.4      60.4       1       3      61      49    1015    0.00
    09/21/2014 08:30      66    56.0      0.10        67.3      67.6      60.4       1       3     135     125    1015    0.00
    09/21/2014 08:40      67    56.1      0.10        67.7      68.2      60.4       1       3     126     150    1015    0.00
    09/21/2014 08:50      62    56.6      0.10        69.0      69.8      60.4       2       4     204     250    1015    0.00
    09/21/2014 09:00      63    55.9      0.10        69.1      69.9      60.4       2       5     211     183    1015    0.00
    09/21/2014 09:10      61    55.9      0.10        69.3      70.1      60.4       2       5      84      71    1015    0.00
    09/21/2014 09:20      62    56.0      0.10        69.9      70.3      60.4       2       6     233     199    1015    0.00
    09/21/2014 09:30      60    56.4      0.10        70.5      71.3      60.4       4       8     166     175    1015    0.00
    09/21/2014 09:40      57    55.9      0.10        71.0      71.6      60.4       2       7     153     206    1015    0.00
    09/21/2014 09:50      56    56.2      0.10        71.9      72.7      60.4       2       6     171     182    1015    0.00
    09/21/2014 10:00      56    56.0      0.10        72.3      72.8      60.4       3       6     163     134    1015    0.00
    09/21/2014 10:10      54    55.6      0.10        72.5      72.8      60.4       2       6     177     167    1015    0.00
    09/21/2014 10:20      51    55.8      0.10        73.8      74.9      60.4       2       6     164     174    1015    0.00
    09/21/2014 10:30      51    55.7      0.10        74.7      76.3      60.4       2       6     164     182    1014    0.00
    09/21/2014 10:40      49    55.4      0.10        75.1      76.3      60.4       3       7     206     164    1014    0.00
    09/21/2014 10:50      52    55.2      0.10        74.5      76.3      60.4       2       6     187     198    1014    0.00
    09/21/2014 11:00      49    55.1      0.10        74.9      76.3      60.4       1       4     258     205    1014    0.00
    09/21/2014 11:10      49    55.1      0.10        76.1      76.7      60.4       2       6     257     210    1014    0.00
    09/21/2014 11:20      47    55.0      0.10        76.1      76.9      60.4       1       3     172     141    1014    0.00
    09/21/2014 11:30      45    54.6      0.10        77.3      78.2      60.4       1       4     305      34    1014    0.00
    09/21/2014 11:40      44    54.6      0.10        78.3      78.9      60.4       3       6     249     251    1014    0.00
    09/21/2014 11:50      45    54.9      0.10        78.0      78.9      60.4       2       5     216     186    1013    0.00
    09/21/2014 12:00      43    55.4      0.10        79.2      80.0      60.4       2       6     117     156    1013    0.00
    09/21/2014 12:10      43    55.1      0.10        79.2      80.0      60.4       2       5     153     168    1013    0.00
    09/21/2014 12:20      40    54.6      0.10        80.0      80.7      60.4       2       7     214     246    1013    0.00
    09/21/2014 12:30      40    54.7      0.10        80.5      81.5      60.4       3       7     189     201    1013    0.00
    09/21/2014 12:40      41    53.8      0.10        80.0      81.5      60.4       1       6     111      85    1013    0.00
    09/21/2014 12:50      39    54.2      0.10        80.4      81.5      60.4       2       7      83     139    1013    0.00
    09/21/2014 13:00      38    53.9      0.10        80.7      81.5      60.4       3       6     201     184    1012    0.00
    09/21/2014 13:10      39    54.8      0.10        81.7      82.3      60.4       3       8     157     154    1012    0.00
    09/21/2014 13:20      37    54.0      0.10        81.7      82.3      60.4       3       7     105      49    1012    0.00
    09/21/2014 13:30      36    53.6      0.10        82.6      83.2      60.4       3      10     121     136    1012    0.00
    09/21/2014 13:40      36    52.1      0.10        82.0      83.2      60.4       2       5      28      12    1012    0.00
    09/21/2014 13:50      35    54.0      0.10        82.6      83.4      60.4       4       9     150     167    1012    0.00
    09/21/2014 14:00      35    52.9      0.10        82.5      83.4      60.4       3       7     108     116    1012    0.00
    09/21/2014 14:10      37    52.7      0.10        83.1      83.6      60.4       4       8     126     136    1012    0.00
    09/21/2014 14:20      36    53.7      0.10        83.9      84.2      60.4       3       6     118     106    1012    0.00
    09/21/2014 14:30      36    53.8      0.10        83.3      84.2      60.4       4       8     121      76    1012    0.00
    09/21/2014 14:40      37    53.5      0.10        83.4      84.5      60.4       4       8     103      97    1012    0.00
    09/21/2014 14:50      37    53.6      0.10        83.3      84.5      60.4       4       9     132     151    1012    0.00
    09/21/2014 15:00      36    53.5      0.10        83.0      84.5      60.4       4       9     113      91    1012    0.00
    09/21/2014 15:10      39    53.8      0.10        82.5      84.5      60.4       6      10     138     146    1012    0.00
    09/21/2014 15:20      38    54.5      0.10        82.4      84.5      60.4       6      11     148     172    1012    0.00
    09/21/2014 15:30      38    53.7      0.10        83.0      84.5      60.4       5      11     139     148    1012    0.00
    09/21/2014 15:40      38    53.9      0.10        82.3      84.5      60.4       4       6     129     116    1012    0.00
    09/21/2014 15:50      39    54.2      0.10        81.9      84.5      60.4       4       8     135     176    1012    0.00
    09/21/2014 16:00      39    54.3      0.10        81.5      84.5      60.4       5       9     137     132    1012    0.00
    09/21/2014 16:10      39    54.1      0.10        81.3      84.5      60.4       2       7     117     133    1012    0.00
    09/21/2014 16:20      40    54.1      0.10        80.6      84.5      60.4       3       7     124     143    1012    0.00
    09/21/2014 16:30      42    54.1      0.10        80.0      84.5      60.4       3       7     131     152    1012    0.00
    09/21/2014 16:40      41    54.0      0.10        79.5      84.5      60.4       3       7     100      89    1012    0.00
    09/21/2014 16:50      42    53.9      0.10        79.0      84.5      60.4       3       8     123     134    1012    0.00
    09/21/2014 17:00      42    54.0      0.10        78.6      84.5      60.4       2       6     124      87    1012    0.00
    09/21/2014 17:10      42    54.0      0.10        78.7      84.5      60.4       2       4     140     150    1012    0.00
    09/21/2014 17:20      44    53.9      0.10        78.3      84.5      60.4       2       4     161      54    1012    0.00
    09/21/2014 17:30      45    54.2      0.10        77.6      84.5      60.4       1       3     187     211    1012    0.00
    09/21/2014 17:40      48    54.7      0.10        77.0      84.5      60.4       2       9     225     257    1012    0.00
    09/21/2014 17:50      51    55.5      0.10        75.5      84.5      60.4       4       8     260     251    1012    0.00
    09/21/2014 18:00      54    56.1      0.10        74.3      84.5      60.4       3       8     267     264    1012    0.00
    09/21/2014 18:10      56    56.3      0.10        73.5      84.5      60.4       3       7     271     254    1012    0.00
    09/21/2014 18:20      57    56.4      0.10        72.9      84.5      60.4       3       5     263     240    1012    0.00
    09/21/2014 18:30      59    56.8      0.10        72.1      84.5      60.4       1       4     258     247    1012    0.00
    09/21/2014 18:40      59    56.5      0.10        71.4      84.5      60.4       1       5     250     254    1012    0.00
    09/21/2014 18:50      59    56.3      0.10        71.4      84.5      60.4       1       4     264     244    1012    0.00
    09/21/2014 19:00      60    56.4      0.10        71.0      84.5      60.4       2       4     247     253    1012    0.00
    09/21/2014 19:10      61    56.5      0.10        70.7      84.5      60.4       2       5     254     264    1012    0.00
    09/21/2014 19:20      61    56.5      0.10        70.6      84.5      60.4       1       3     260     256    1013    0.00
    09/21/2014 19:30      62    56.2      0.10        70.1      84.5      60.4       1       3     227     191    1013    0.00
    09/21/2014 19:40      64    56.5      0.10        69.6      84.5      60.4       2       4     207     188    1013    0.00
    09/21/2014 19:50      65    56.5      0.10        69.2      84.5      60.4       2       5     206     183    1013    0.00
    09/21/2014 20:00      65    56.3      0.10        68.7      84.5      60.4       1       2     224     236    1013    0.00
    09/21/2014 20:10      66    56.3      0.10        68.3      84.5      60.4       0       2     233     251    1013    0.00
    09/21/2014 20:20      66    56.8      0.10        68.3      84.5      60.4       0       2     287     282    1013    0.00
    09/21/2014 20:30      67    56.3      0.10        67.8      84.5      60.4       0       0     161     162    1013    0.00
    09/21/2014 20:40      68    56.4      0.10        67.5      84.5      60.4       1       2     185     162    1013    0.00
    09/21/2014 20:50      68    56.2      0.10        67.2      84.5      60.4       2       3     175     175    1013    0.00
    09/21/2014 21:00      69    56.3      0.10        67.0      84.5      60.4       1       2     192     183    1013    0.00
    09/21/2014 21:10      70    56.4      0.10        66.6      84.5      60.4       1       2     174     184    1013    0.00
    09/21/2014 21:20      71    56.3      0.10        66.3      84.5      60.4       1       2     170     174    1013    0.00
    09/21/2014 21:30      72    56.4      0.10        65.9      84.5      60.4       0       1     172     170    1013    0.00
    09/21/2014 21:40      73    56.5      0.10        65.6      84.5      60.4       2       2     189     188    1013    0.00
    09/21/2014 21:50      73    56.2      0.10        65.1      84.5      60.4       0       1     189     186    1013    0.00
    09/21/2014 22:00      76    56.6      0.10        64.8      84.5      60.4       0       0       0     196    1013    0.00
    09/21/2014 22:10      75    57.0      0.10        65.0      84.5      60.4       0       0     301     312    1013    0.00
    09/21/2014 22:20      75    56.8      0.10        64.9      84.5      60.4       0       0       0     309    1013    0.00
    09/21/2014 22:30      75    56.6      0.10        64.7      84.5      60.4       0       0       0     308    1013    0.00
    09/21/2014 22:40      75    56.7      0.10        64.6      84.5      60.4       0       0       0     296    1013    0.00
    09/21/2014 22:50      76    56.4      0.10        64.5      84.5      60.4       0       0       0     273    1013    0.00
    09/21/2014 23:00      76    56.7      0.10        64.3      84.5      60.4       0       0       0     278    1013    0.00
    09/21/2014 23:10      76    56.8      0.10        64.4      84.5      60.4       0       0       0     278    1013    0.00
    09/21/2014 23:20      76    56.7      0.10        64.4      84.5      60.4       0       0       0     278    1013    0.00
    09/21/2014 23:30      77    56.5      0.10        64.0      84.5      60.4       0       0       0     164    1013    0.00
    09/21/2014 23:40      78    56.7      0.10        63.8      84.5      60.4       0       0      39      38    1013    0.00
    09/21/2014 23:50      78    56.5      0.10        63.7      84.5      60.4       0       2      82      76    1013    0.00
    09/22/2014 00:00      79    56.3      0.10        63.2      84.5      60.4       0       2      68      70    1013    0.00
    09/22/2014 00:10      79    56.3      0.10        62.9      63.2      62.7       0       1      78      85    1013    0.00
    09/22/2014 00:20      77    56.3      0.10        63.3      63.6      62.7       0       1      69      92    1013    0.00
    09/22/2014 00:30      78    56.0      0.10        63.3      63.6      62.7       0       1      42      42    1013    0.00
    09/22/2014 00:40      78    56.0      0.10        63.2      63.6      62.7       0       1      55      55    1013    0.00
    09/22/2014 00:50      79    56.1      0.10        62.9      63.6      62.7       0       0       0      62    1013    0.00
    09/22/2014 01:00      80    56.4      0.10        62.8      63.6      62.5       0       0       0      61    1013    0.00
    09/22/2014 01:10      80    56.5      0.10        62.7      63.6      62.5       0       1      76      84    1013    0.00
    09/22/2014 01:20      81    56.4      0.10        62.6      63.6      62.3       0       0       0      70    1013    0.00
    09/22/2014 01:30      81    56.9      0.10        62.6      63.6      62.3       0       1     298     297    1014    0.00
    09/22/2014 01:40      80    56.5      0.10        62.5      63.6      62.3       0       0       0     321    1014    0.00
    09/22/2014 01:50      80    56.1      0.10        62.3      63.6      62.1       0       1      42      36    1014    0.00
    09/22/2014 02:00      80    56.0      0.10        62.2      63.6      61.9       1       2      59      60    1013    0.00
    09/22/2014 02:10      79    56.1      0.10        62.5      63.6      61.9       1       2      58      52    1013    0.00
    09/22/2014 02:20      78    55.9      0.10        62.7      63.6      61.9       0       1      32      22    1013    0.00
    09/22/2014 02:30      80    55.7      0.10        62.3      63.6      61.9       0       1     327     328    1013    0.00
    09/22/2014 02:40      80    55.7      0.10        61.9      63.6      61.6       0       0       0       0    1013    0.00
    09/22/2014 02:50      82    55.4      0.10        61.3      63.6      61.0       0       1     306     305    1013    0.00
    09/22/2014 03:00      82    55.5      0.10        61.1      63.6      60.9       0       1     306     306    1013    0.00
    09/22/2014 03:10      82    55.3      0.10        60.8      63.6      60.6       0       0       0     306    1013    0.00
    09/22/2014 03:20      83    55.1      0.10        60.5      63.6      60.1       0       1     294     294    1013    0.00
    09/22/2014 03:30      83    55.0      0.10        60.2      63.6      60.0       0       1     298     296    1013    0.00
    09/22/2014 03:40      83    55.0      0.10        60.1      63.6      59.9       0       0     314     314    1013    0.00
    09/22/2014 03:50      82    55.0      0.10        60.2      63.6      59.9       0       1     319     324    1013    0.00
    09/22/2014 04:00      83    54.5      0.10        59.8      63.6      59.4       0       1     322     328    1013    0.00
    09/22/2014 04:10      84    54.9      0.10        59.8      63.6      59.4       0       1     320     319    1013    0.00
    09/22/2014 04:20      84    54.7      0.10        59.6      63.6      59.2       0       0       0     296    1013    0.00
    09/22/2014 04:30      85    54.8      0.10        59.4      63.6      59.1       1       2      63      59    1013    0.00
    09/22/2014 04:40      83    55.1      0.10        60.0      63.6      59.1       0       2      64      48    1013    0.00
    09/22/2014 04:50      83    54.6      0.10        59.7      63.6      59.1       0       0       0      90    1013    0.00
    09/22/2014 05:00      85    54.3      0.10        59.1      63.6      58.9       0       0       0     118    1013    0.00
    09/22/2014 05:10      85    54.6      0.10        59.0      63.6      58.8       0       0     281     282    1013    0.00
    09/22/2014 05:20      86    54.8      0.10        59.0      63.6      58.8       1       1     329     334    1013    0.00
    09/22/2014 05:30      85    54.9      0.10        59.2      63.6      58.8       1       2     318     325    1013    0.00
    09/22/2014 05:40      85    54.8      0.10        59.3      63.6      58.8       0       1     318     313    1013    0.00
    09/22/2014 05:50      85    54.7      0.10        59.3      63.6      58.8       0       1     325     334    1013    0.00
    09/22/2014 06:00      85    54.4      0.10        59.0      63.6      58.7       0       0       0     306    1013    0.00
    09/22/2014 06:10      85    54.1      0.10        58.7      63.6      58.4       0       0       0     303    1013    0.00
    09/22/2014 06:20      86    54.6      0.10        58.9      63.6      58.4       0       0       0     304    1013    0.00
    09/22/2014 06:30      85    55.0      0.10        59.4      63.6      58.4       0       0       0     320    1014    0.00
    09/22/2014 06:40      84    55.2      0.10        59.8      63.6      58.4       0       0       0     325    1014    0.00
    09/22/2014 06:50      84    56.0      0.10        60.8      63.6      58.4       0       0       0     280    1014    0.00
    09/22/2014 07:00      78    56.9      0.10        62.6      64.0      58.4       0       0       0     195    1014    0.00
    09/22/2014 07:10      71    56.8      0.10        65.1      66.0      58.4       0       1     253     245    1014    0.00
    09/22/2014 07:20      68    56.5      0.10        66.5      67.7      58.4       0       0     249     235    1014    0.00
    09/22/2014 07:30      67    56.5      0.10        68.1      68.4      58.4       0       1     318     343    1014    0.00
    09/22/2014 07:40      63    56.7      0.10        69.2      70.3      58.4       0       0     252     346    1014    0.00
    09/22/2014 07:50      61    56.9      0.10        70.8      71.4      58.4       1       3     184     175    1014    0.00
    09/22/2014 08:00      59    56.5      0.10        71.1      71.7      58.4       1       3     158     205    1014    0.00
    09/22/2014 08:10      57    56.6      0.10        72.0      73.0      58.4       1       2     190     197    1014    0.00
    09/22/2014 08:20      57    56.6      0.10        72.2      73.0      58.4       2       4     202     197    1014    0.00
    09/22/2014 08:30      55    56.1      0.10        72.4      73.3      58.4       2       4     189     210    1014    0.00
    09/22/2014 08:40      54    55.6      0.10        73.2      73.5      58.4       2       3     191     212    1014    0.00
    09/22/2014 08:50      51    54.9      0.10        73.7      74.1      58.4       1       3     201     201    1014    0.00
    09/22/2014 09:00      50    54.9      0.10        74.7      75.8      58.4       1       4     192     191    1014    0.00
    09/22/2014 09:10      50    55.2      0.10        75.5      76.0      58.4       2       4     192     178    1014    0.00
    09/22/2014 09:20      45    55.3      0.10        76.0      77.3      58.4       2       6     194     173    1014    0.00
    09/22/2014 09:30      46    54.5      0.10        77.3      77.7      58.4       3       5     185     206    1014    0.00
    09/22/2014 09:40      43    54.5      0.10        78.0      78.5      58.4       2       5     167     173    1014    0.00
    09/22/2014 09:50      40    53.7      0.10        79.0      79.8      58.4       1       3     158     107    1014    0.00
    09/22/2014 10:00      37    52.7      0.10        79.4      80.8      58.4       3       6     190     180    1014    0.00
    09/22/2014 10:10      38    52.8      0.10        80.4      81.1      58.4       2       6     164     246    1014    0.00
    09/22/2014 10:20      36    51.6      0.10        81.4      81.8      58.4       2       5     161     150    1014    0.00
    09/22/2014 10:30      36    51.1      0.10        81.3      82.0      58.4       3       5     190     160    1014    0.00
    09/22/2014 10:40      35    50.9      0.10        81.4      82.3      58.4       2       5     232     224    1014    0.00
    09/22/2014 10:50      32    51.5      0.10        83.0      83.7      58.4       2       7     158     150    1014    0.00
    09/22/2014 11:00      34    51.5      0.10        83.6      84.3      58.4       2       7     168     143    1014    0.00
    09/22/2014 11:10      30    51.3      0.10        83.9      84.5      58.4       3       7     134     149    1014    0.00
    09/22/2014 11:20      29    49.5      0.10        84.2      84.6      58.4       2       6     105      85    1014    0.00
    09/22/2014 11:30      30    49.7      0.10        84.7      85.6      58.4       4       7     163     149    1014    0.00
    09/22/2014 11:40      30    50.2      0.10        85.0      86.3      58.4       2       6     162     180    1013    0.00
    09/22/2014 11:50      27    49.6      0.10        86.6      87.6      58.4       3       6     163     159    1013    0.00
    09/22/2014 12:00      27    48.4      0.10        86.6      87.6      58.4       2       5     126     145    1013    0.00
    09/22/2014 12:10      27    49.7      0.10        86.6      87.7      58.4       4       8     179     168    1013    0.00
    09/22/2014 12:20      26    48.4      0.10        86.6      87.7      58.4       4       7     164     182    1013    0.00
    09/22/2014 12:30      23    46.6      0.10        87.7      88.5      58.4       2       4     217     239    1013    0.00
    09/22/2014 12:40      25    48.3      0.10        89.0      89.6      58.4       2       6     162     132    1012    0.00
    09/22/2014 12:50      26    49.5      0.10        88.7      89.6      58.4       3       6      91     103    1012    0.00
    09/22/2014 13:00      27    50.7      0.10        89.0      89.6      58.4       3       7     147     165    1012    0.00
    09/22/2014 13:10      27    51.0      0.10        89.4      89.8      58.4       2       7     104     130    1012    0.00
    09/22/2014 13:20      29    52.3      0.10        88.9      89.8      58.4       3       7     110      84    1012    0.00
    09/22/2014 13:30      29    52.7      0.10        88.5      89.8      58.4       4       8     102      73    1012    0.00
    09/22/2014 13:40      30    53.2      0.10        88.5      89.8      58.4       4      11      87      92    1012    0.00
    09/22/2014 13:50      30    53.2      0.10        88.6      89.8      58.4       4       9      94      87    1012    0.00
    09/22/2014 14:00      30    53.0      0.10        89.0      89.8      58.4       4       9     107     154    1012    0.00
    09/22/2014 14:10      28    52.2      0.10        89.1      89.8      58.4       5       9     134     145    1012    0.00
    09/22/2014 14:20      28    50.6      0.10        88.5      89.8      58.4       4      10     133     154    1012    0.00
    09/22/2014 14:30      24    49.7      0.10        89.2      90.0      58.4       3       9     134     173    1012    0.00
    09/22/2014 14:40      23    47.2      0.10        89.3      90.0      58.4       4       8     105      65    1012    0.00
    09/22/2014 14:50      23    46.0      0.10        89.1      90.0      58.4       4      10     109     132    1011    0.00
    09/22/2014 15:00      19    43.7      0.10        89.6      90.1      58.4       4       8     103     108    1011    0.00
    09/22/2014 15:10      20    42.6      0.10        89.3      90.1      58.4       5      10     101      63    1011    0.00
    09/22/2014 15:20      21    44.8      0.10        89.2      90.1      58.4       4       8     110     118    1011    0.00
    09/22/2014 15:30      22    44.8      0.10        88.9      90.1      58.4       3       8     126     132    1011    0.00
    09/22/2014 15:40      22    45.6      0.10        88.4      90.1      58.4       4      10     118     135    1011    0.00
    09/22/2014 15:50      24    44.7      0.10        88.0      90.1      58.4       4       7     123     136    1011    0.00
    09/22/2014 16:00      23    46.3      0.10        88.1      90.1      58.4       3       7     126      51    1011    0.00
    09/22/2014 16:10      24    45.9      0.10        88.0      90.1      58.4       3       7      85      68    1011    0.00
    09/22/2014 16:20      24    46.6      0.10        87.9      90.1      58.4       3       7      99      82    1011    0.00
    09/22/2014 16:30      21    44.5      0.10        87.0      90.1      58.4       3       8      92      96    1011    0.00
    09/22/2014 16:40      23    44.0      0.10        86.3      90.1      58.4       3       7     104      90    1011    0.00
    09/22/2014 16:50      23    44.1      0.10        85.8      90.1      58.4       3       8     106      91    1011    0.00
    09/22/2014 17:00      25    44.1      0.10        85.1      90.1      58.4       3       7     126     147    1011    0.00
    09/22/2014 17:10      25    44.6      0.10        84.8      90.1      58.4       2       7     102      28    1011    0.00
    09/22/2014 17:20      27    46.3      0.10        84.4      90.1      58.4       2       6     105      88    1011    0.00
    09/22/2014 17:30      28    47.0      0.10        83.7      90.1      58.4       1       3     101     101    1011    0.00
    09/22/2014 17:40      30    47.5      0.10        82.9      90.1      58.4       0       2     142     131    1011    0.00
    09/22/2014 17:50      31    47.9      0.10        82.0      90.1      58.4       0       2     111     102    1011    0.00
    09/22/2014 18:00      32    48.1      0.10        80.9      90.1      58.4       0       2     157     152    1012    0.00
    09/22/2014 18:10      34    48.5      0.10        79.9      90.1      58.4       1       3     103      75    1012    0.00
    09/22/2014 18:20      35    49.1      0.10        79.5      90.1      58.4       0       2     103     101    1012    0.00
    09/22/2014 18:30      39    49.8      0.10        78.2      90.1      58.4       1       2     258     258    1012    0.00
    09/22/2014 18:40      38    50.2      0.10        77.4      90.1      58.4       0       1     191     104    1012    0.00
    09/22/2014 18:50      41    50.5      0.10        77.2      90.1      58.4       0       2     197      65    1012    0.00
    09/22/2014 19:00      48    53.2      0.10        76.3      90.1      58.4       1       2     206     211    1012    0.00
    09/22/2014 19:10      50    55.1      0.10        75.3      90.1      58.4       0       2     220     244    1012    0.00
    09/22/2014 19:20      44    54.4      0.10        75.3      90.1      58.4       0       1     128      60    1012    0.00
    09/22/2014 19:30      44    51.3      0.10        75.1      90.1      58.4       0       1     118      88    1012    0.00
    09/22/2014 19:40      45    51.7      0.10        74.5      90.1      58.4       0       1     122     124    1012    0.00
    09/22/2014 19:50      46    52.3      0.10        74.0      90.1      58.4       0       0       0     201    1012    0.00
    09/22/2014 20:00      49    52.5      0.10        73.4      90.1      58.4       1       2     140     134    1012    0.00
    09/22/2014 20:10      50    53.3      0.10        73.0      90.1      58.4       0       1     154     154    1012    0.00
    09/22/2014 20:20      52    53.5      0.10        72.6      90.1      58.4       1       2     126     147    1012    0.00
    09/22/2014 20:30      52    53.8      0.10        72.4      90.1      58.4       1       3     120     125    1013    0.00
    09/22/2014 20:40      52    53.7      0.10        72.5      90.1      58.4       0       1     126     136    1013    0.00